Location: Unspecified
(58.7730°N, 5.8460°E)
Time: 18:34:07
(UTC+02:00)

Cosmos 2058 - Visible Passes

Search period start: 24 July 2017 00:00
Search period end: 03 August 2017 00:00
Orbit: 563 x 585 km, 82.5° (Epoch: 23 July)

Date Brightness Start Highest point End Pass type
(mag) Time Alt. Az. Time Alt. Az. Time Alt. Az.
31 Jul 6.4 03:43:08 10° NNE 03:44:32 11° NE 03:45:56 10° ENE visible
01 Aug 6.1 03:46:01 10° NNE 03:48:05 13° NE 03:50:08 10° E visible
02 Aug 6.0 03:49:03 10° NNE 03:51:35 16° NE 03:54:07 10° E visible
